WEATHER DATA

TODAY
Time Temp. Dewp. Hum. Bar.
00:09 -0.1 -4.7 68 1019
00:20 0 -4.8 67 1019.1
00:29 0 -4.8 67 1019.1
00:39 0 -4.8 67 1019.1
00:50 0 -4.6 68 1018.9
01:00 -0.1 -4.7 68 1018.9
01:09 -0.1 -4.9 67 1018.9
01:20 -0.1 -5 66 1018.8
01:30 -0.2 -5.3 65 1018.7
01:40 -0.2 -5.3 65 1018.7
01:49 -0.2 -5.3 65 1018.5
02:00 -0.3 -5.4 65 1018.4
02:07 -0.3 -5.4 65 1018.3
02:19 -0.3 -5.4 65 1018.2
02:29 -0.4 -5.3 66 1018.2
02:40 -0.5 -5.4 66 1018.1
02:48 -0.5 -5.3 67 1018
03:00 -0.6 -5.5 66 1017.9
03:11 -0.6 -5.5 66 1017.8
03:21 -0.7 -5.6 66 1017.8
03:31 -0.7 -5.6 66 1017.9
03:41 -0.8 -5.7 66 1017.9
03:51 -0.8 -5.9 65 1017.7
04:01 -0.8 -5.7 66 1017.7
04:11 -0.9 -6 65 1017.6
04:21 -0.9 -6 65 1017.4
04:31 -0.9 -6 65 1017.4
04:41 -1 -6.1 65 1017.4
04:51 -1 -6.1 65 1017.3
05:02 -1.1 -6 66 1017.3
05:11 -1.1 -6 66 1017.2
05:21 -1.2 -6.3 65 1017.1
05:32 -1.2 -6.3 65 1017.1
05:42 -1.2 -6.3 65 1017
05:51 -1.2 -6.3 65 1017
06:02 -1.2 -6.3 65 1017
06:12 -1.2 -6.5 64 1016.9
06:22 -1.1 -6.4 64 1016.9
06:32 -1.1 -6.2 65 1016.9
06:42 -1 -6.3 64 1016.9
06:52 -1 -6.3 64 1016.8
07:02 -1 -6.5 63 1016.7
07:12 -1 -6.3 64 1016.7
07:23 -0.9 -6.2 64 1016.7
07:32 -0.8 -6.3 63 1016.7
07:42 -0.7 -6.2 63 1016.6
07:53 -0.6 -6.3 62 1016.5
08:03 -0.5 -6.2 62 1016.6
08:12 -0.4 -6.1 62 1016.4
08:23 -0.3 -6 62 1016.5
08:33 -0.1 -6 61 1016.4
08:43 0.1 -6 60 1016.3
08:53 0.2 -5.9 60 1016.4
09:03 0.3 -5.8 60 1016.4
09:13 0.3 -5.6 61 1016.4
09:23 0.4 -5.5 61 1016.4
09:33 0.5 -5.6 60 1016.5
09:44 0.5 -5.6 60 1016.5
09:53 0.5 -5.4 61 1016.6
10:03 0.5 -5.6 60 1016.5
10:14 0.6 -5.6 60 1016.4
10:24 0.7 -5.5 60 1016.3
10:34 0.8 -5.4 60 1016.2
10:43 0.8 -5.6 59 1016.1
10:54 0.8 -5.4 60 1016.1
11:04 0.8 -5.2 61 1016
11:14 0.7 -5.3 61 1015.9
11:24 0.8 -5 62 1015.9
11:34 0.6 -4.8 64 1015.8
11:44 0.4 -4.8 65 1015.8
11:54 0.2 -4.6 67 1015.8
12:05 0.3 -4.3 68 1015.8
12:14 0.1 -4.3 69 1015.8
12:24 0.1 -4.2 70 1015.6
12:35 0 -4.1 71 1015.4
12:45 -0.1 -4 72 1015.5
12:55 -0.1 -3.9 73 1015.4
13:04 -0.2 -3.8 74 1015.5
13:15 -0.4 -3.8 75 1015.6
13:25 -0.6 -4 75 1015.4
13:35 -0.7 -4.1 75 1015.4
13:45 -0.8 -4.2 75 1015.4
13:55 -0.8 -4.2 75 1015.6
14:05 -0.7 -4.1 75 1015.7
14:15 -0.8 -4.2 75 1015.4
14:26 -0.8 -4.2 75 1015.2
14:35 -0.8 -4.2 75 1015.1
14:45 -0.7 -4.1 75 1015.1
14:56 -0.7 -4.1 75 1015.1
15:06 -0.8 -4.2 75 1014.9
15:16 -0.8 -4.1 76 1014.9

DAY STATISTIC

2021-04-13
TEMPERATURE
AVERAGE
-0.3
HIGH
0.8
10:34
LOW
-1.2
05:21
PRESSURE
AVERAGE
1016.8
HIGH
1019.1
00:20
LOW
1014.9
15:06
DEWPOINT
AVERAGE
-5.3
HIGH
-3.8
13:04
LOW
-6.5
06:12
HUMIDITY
AVERAGE
66
HIGH
76
15:16
LOW
59
10:43
TEMPERATURE (°C)
LOW
-1.2
HIGH
0.8
AVERAGE
-0.3
PRESSURE (hpa)
LOW
1014.9
HIGH
1019.1
AVERAGE
1016.8
DEVICE